Stations météo

réclame
Mon MeteoGroup
Cordoba Aeropuerto (AWS), Espagne (8410): Température de l'air & dewpoint: 14.09.2020 19:00:00 - 20.09.2020 19:00:00 (CEST)Cordoba Aeropuerto (AWS), Espagne (8410): Vitesse du vent: 14.09.2020 19:00:00 - 20.09.2020 19:00:00 (CEST)Cordoba Aeropuerto (AWS), Espagne (8410): Direction du vent: 14.09.2020 19:00:00 - 20.09.2020 19:00:00 (CEST)Cordoba Aeropuerto (AWS), Espagne (8410): reduced air pressure: 14.09.2020 19:00:00 - 20.09.2020 19:00:00 (CEST)Cordoba Aeropuerto (AWS), Espagne (8410): visibility: 14.09.2020 19:00:00 - 20.09.2020 19:00:00 (CEST)
Date & Time tt [°C] td [°C] ff [km/h] ff [knt] dd ppp [hPa] vv [km]
20.09.2020 19:00:00 - - - - - - -
20.09.2020 18:00:00 27,4 14,5 9 5 W 1016,8 -
20.09.2020 17:00:00 27,4 14,6 11 6 SW 1017,1 30
20.09.2020 16:00:00 26,4 14,6 11 6 SW 1017,8 -
20.09.2020 15:00:00 25,5 15,0 11 6 WSW 1018,8 -
20.09.2020 14:00:00 25,3 15,0 8 4 SW 1019,4 20
20.09.2020 13:00:00 24,2 15,1 9 5 S 1019,9 -
20.09.2020 12:00:00 23,6 16,1 4 2 ESE 1020,1 -
20.09.2020 11:00:00 20,2 16,1 0 0 N 1020,5 20
20.09.2020 10:00:00 19,4 16,4 4 2 WNW 1020,3 -
20.09.2020 09:00:00 19,0 16,4 2 1 N 1020,1 -
20.09.2020 08:00:00 18,9 16,7 4 2 SW 1019,7 10
20.09.2020 07:00:00 18,9 16,5 4 2 WNW 1019,3 -
20.09.2020 06:00:00 18,9 16,5 0 0 N 1019,3 -
20.09.2020 05:00:00 18,8 16,8 4 2 SW 1019,3 -
20.09.2020 04:00:00 18,5 16,5 9 5 S 1019,7 -
20.09.2020 03:00:00 18,3 16,5 5 3 S 1019,9 -
20.09.2020 02:00:00 18,3 16,1 8 4 S 1020,0 -
20.09.2020 01:00:00 18,8 16,2 9 5 SW 1020,0 -
20.09.2020 00:00:00 19,9 16,3 8 4 SW 1019,7 -
19.09.2020 23:00:00 20,7 17,9 5 3 S 1019,3 -
19.09.2020 22:00:00 21,1 17,5 8 4 SSW 1018,6 -
19.09.2020 21:00:00 22,0 17,6 4 2 SSW 1017,8 -
19.09.2020 20:00:00 23,2 17,0 9 5 SSW 1017,4 40
19.09.2020 19:00:00 24,3 16,9 11 6 SW 1017,1 -
19.09.2020 18:00:00 24,7 16,5 13 7 SSW 1017,1 -
19.09.2020 17:00:00 24,2 17,2 4 2 SE 1017,5 40
19.09.2020 16:00:00 22,6 17,6 4 2 S 1018,0 -
19.09.2020 15:00:00 21,1 17,1 4 2 W 1018,6 -
19.09.2020 14:00:00 19,3 17,1 5 3 SW 1019,4 6
19.09.2020 13:00:00 18,9 17,0 9 5 WNW 1019,7 -
19.09.2020 12:00:00 19,2 16,6 9 5 WSW 1019,5 -
19.09.2020 11:00:00 19,5 17,1 16 9 SW 1019,2 10
19.09.2020 10:00:00 19,5 17,3 8 4 SSW 1018,5 -
19.09.2020 09:00:00 18,8 17,1 5 3 SW 1018,1 -
19.09.2020 08:00:00 18,5 17,2 0 0 N 1017,5 15
19.09.2020 07:00:00 18,3 17,0 5 3 WSW 1017,2 -
19.09.2020 06:00:00 18,2 16,7 9 5 W 1016,9 -
19.09.2020 05:00:00 18,4 16,7 11 6 WSW 1016,7 -
19.09.2020 04:00:00 19,1 17,1 8 4 WSW 1016,9 -
19.09.2020 03:00:00 19,2 16,9 13 7 WSW 1016,8 -
19.09.2020 02:00:00 19,6 17,0 21 11 SSW 1016,6 -
19.09.2020 01:00:00 20,8 16,2 15 8 SW 1016,5 -
19.09.2020 00:00:00 20,9 16,5 15 8 SW 1016,3 -
18.09.2020 23:00:00 20,7 16,5 11 6 SW 1016,3 -
18.09.2020 22:00:00 21,5 16,4 18 10 SW 1015,4 -
18.09.2020 21:00:00 22,0 16,3 22 12 WSW 1014,3 -
18.09.2020 20:00:00 23,2 16,0 29 16 WSW 1013,7 25
18.09.2020 19:00:00 23,3 16,8 28 15 WSW 1012,9 -
18.09.2020 18:00:00 25,9 14,1 37 20 WSW 1012,0 -
18.09.2020 17:00:00 24,4 17,8 29 16 W 1012,0 25
18.09.2020 16:00:00 26,5 17,0 41 22 WSW 1011,5 -
18.09.2020 15:00:00 25,3 19,7 16 9 W 1011,1 -
18.09.2020 14:00:00 26,9 17,2 28 15 S 1010,6 15
18.09.2020 13:00:00 22,1 20,7 9 5 NE 1011,7 -
18.09.2020 12:00:00 18,6 17,8 11 6 WSW 1013,1 -
18.09.2020 11:00:00 22,1 18,6 5 3 NW 1012,8 20
18.09.2020 10:00:00 21,0 18,0 9 5 W 1012,3 -
18.09.2020 09:00:00 21,1 16,1 9 5 W 1012,3 -
18.09.2020 08:00:00 20,8 15,8 5 3 WSW 1012,1 25
18.09.2020 07:00:00 21,2 15,1 8 4 WSW 1011,8 -
18.09.2020 06:00:00 22,6 14,9 18 10 SW 1011,6 -
18.09.2020 05:00:00 23,4 14,7 22 12 S 1011,9 -
18.09.2020 04:00:00 24,2 14,6 26 14 S 1011,6 -
18.09.2020 03:00:00 24,6 14,1 29 16 S 1011,9 -
18.09.2020 02:00:00 23,2 14,9 15 8 SSW 1012,0 -
18.09.2020 01:00:00 22,5 18,9 2 1 SE 1012,4 -
18.09.2020 00:00:00 22,9 18,9 9 5 W 1012,9 -
17.09.2020 23:00:00 23,6 18,3 11 6 WSW 1013,1 -
17.09.2020 22:00:00 24,6 17,3 13 7 W 1012,2 -
17.09.2020 21:00:00 24,2 16,7 13 7 WSW 1011,4 -
17.09.2020 20:00:00 25,9 16,8 11 6 WSW 1010,7 15
17.09.2020 19:00:00 25,5 17,4 16 9 W 1010,6 -
17.09.2020 18:00:00 31,2 12,5 24 13 SSW 1009,5 -
17.09.2020 17:00:00 31,1 14,7 29 16 SSW 1010,3 15
17.09.2020 16:00:00 32,2 13,4 21 11 SSW 1010,9 -
17.09.2020 15:00:00 31,5 13,3 22 12 SSW 1011,7 -
17.09.2020 14:00:00 31,1 15,1 28 15 SSW 1012,4 15
17.09.2020 13:00:00 29,5 16,3 18 10 SSW 1012,9 -
17.09.2020 12:00:00 26,1 17,2 4 2 E 1013,7 -
17.09.2020 11:00:00 24,3 17,3 9 5 NE 1013,9 15
17.09.2020 10:00:00 23,3 17,3 11 6 ENE 1013,6 -
17.09.2020 09:00:00 21,9 17,5 8 4 E 1013,6 -
17.09.2020 08:00:00 20,7 16,9 5 3 NNE 1013,6 20
17.09.2020 07:00:00 20,8 17,2 8 4 ESE 1013,5 -
17.09.2020 06:00:00 21,9 17,1 4 2 SSW 1013,6 -
17.09.2020 05:00:00 23,2 16,5 4 2 SSW 1014,0 -
17.09.2020 04:00:00 23,4 18,1 8 4 SW 1014,6 -
17.09.2020 03:00:00 24,0 18,2 5 3 SE 1014,6 -
17.09.2020 02:00:00 23,8 18,7 5 3 NE 1014,6 -
17.09.2020 01:00:00 24,0 18,3 4 2 E 1015,2 -
17.09.2020 00:00:00 24,3 18,2 2 1 NNW 1015,6 -
16.09.2020 23:00:00 25,0 18,0 11 6 WSW 1015,5 -
16.09.2020 22:00:00 26,7 14,8 18 10 WSW 1015,1 -
16.09.2020 21:00:00 28,1 14,0 15 8 WSW 1014,0 -
16.09.2020 20:00:00 28,9 13,2 11 6 WSW 1013,5 20
16.09.2020 19:00:00 30,0 12,9 15 8 WSW 1013,3 -
16.09.2020 18:00:00 32,2 10,8 11 6 W 1012,9 -
16.09.2020 17:00:00 32,6 10,6 9 5 SW 1013,4 20
16.09.2020 16:00:00 32,5 11,1 8 4 SSW 1014,3 -
16.09.2020 15:00:00 31,2 11,6 11 6 SSW 1015,3 -
16.09.2020 14:00:00 30,5 14,2 5 3 ENE 1016,1 15
16.09.2020 13:00:00 28,3 14,3 8 4 ENE 1016,9 -
16.09.2020 12:00:00 27,7 14,8 8 4 E 1017,8 -
16.09.2020 11:00:00 25,4 14,9 13 7 E 1018,1 15
16.09.2020 10:00:00 22,7 14,3 13 7 E 1018,5 -
16.09.2020 09:00:00 19,0 14,5 2 1 SSE 1018,8 -
16.09.2020 08:00:00 18,3 14,4 4 2 NE 1018,5 20
16.09.2020 07:00:00 18,3 14,4 0 0 N 1018,4 -
16.09.2020 06:00:00 18,9 14,6 0 0 N 1018,8 -
16.09.2020 05:00:00 19,5 14,7 4 2 WSW 1019,1 -
16.09.2020 04:00:00 20,4 14,5 4 2 SSW 1019,4 -
16.09.2020 03:00:00 21,4 14,3 5 3 SW 1019,3 -
16.09.2020 02:00:00 22,0 14,4 8 4 W 1019,3 -
16.09.2020 01:00:00 22,3 14,7 8 4 W 1019,2 -
16.09.2020 00:00:00 23,6 14,6 4 2 S 1018,7 -
15.09.2020 23:00:00 24,7 14,5 5 3 S 1018,2 -
15.09.2020 22:00:00 25,8 14,3 4 2 WSW 1017,7 -
15.09.2020 21:00:00 27,4 14,4 11 6 W 1017,4 -
15.09.2020 20:00:00 30,4 14,1 9 5 W 1017,1 30
15.09.2020 19:00:00 32,0 13,7 11 6 W 1016,9 -
15.09.2020 18:00:00 32,3 14,0 8 4 WNW 1017,2 -
15.09.2020 17:00:00 32,4 14,1 15 8 WSW 1017,8 30
15.09.2020 16:00:00 32,5 13,7 13 7 SSW 1018,6 -
15.09.2020 15:00:00 31,3 14,9 11 6 SW 1019,4 -
15.09.2020 14:00:00 30,7 15,2 8 4 S 1020,2 25
15.09.2020 13:00:00 29,2 15,3 8 4 WSW 1021,0 -
15.09.2020 12:00:00 28,2 16,5 8 4 S 1021,6 -
15.09.2020 11:00:00 26,1 17,2 4 2 SSW 1021,7 20
15.09.2020 10:00:00 23,8 16,8 4 2 SE 1021,5 -
15.09.2020 09:00:00 20,5 16,9 4 2 SW 1021,5 -
15.09.2020 08:00:00 19,6 16,6 4 2 E 1021,2 20
15.09.2020 07:00:00 20,0 16,8 0 0 N 1020,8 -
15.09.2020 06:00:00 20,7 16,7 4 2 SW 1020,7 -
15.09.2020 05:00:00 21,8 17,4 9 5 SSW 1020,5 -
15.09.2020 04:00:00 22,1 18,3 11 6 WSW 1020,7 -
15.09.2020 03:00:00 23,0 18,5 13 7 WSW 1020,8 -
15.09.2020 02:00:00 23,9 18,5 15 8 WSW 1020,8 -
15.09.2020 01:00:00 24,9 18,3 13 7 WSW 1020,4 -
15.09.2020 00:00:00 26,0 18,2 16 9 WSW 1019,8 -
14.09.2020 23:00:00 27,2 18,3 18 10 WSW 1019,1 -
14.09.2020 22:00:00 28,3 11,8 16 9 SW 1018,2 -
14.09.2020 21:00:00 29,6 9,7 15 8 SW 1017,2 -
14.09.2020 20:00:00 31,4 9,6 15 8 S 1016,5 20
14.09.2020 19:00:00 33,1 9,2 18 10 SSW 1016,4 -

tt = Température de l'air
td = dewpoint
ff = Vitesse du vent
dd = Direction du vent
ppp = reduced air pressure
vv = visibility

stations d'obs. à proximité